Hourly Data Report for March 18, 2012

All times are specified in Local Standard Time (LST). Add 1 hour to adjust for Daylight Saving Time where and when it is observed.

MIRAMICHI RCS
NEW BRUNSWICK

47°00'34.000" N
65°27'54.000" W
33.00 m
8100989
71744
ACQ

Download Data

Hourly Data (March 2012)
Hourly Data Report for March 18, 2012
TIME Temp Definition
°C
Dew Point Temp Definition
°C
Rel Hum Definition
%
Wind Dir Definition
10's deg

Wind Spd Definition
km/h
Visibility Definition
km
Stn Press Definition
kPa
Hmdx Definition


Wind Chill Definition


Weather Definition


00:00 4.8 -3.2 56 24 13   101.75     LegendNANA
01:00 4.0 -2.9 61 23 15   101.69     LegendNANA
02:00 3.3 -2.7 65 23 13   101.61     LegendNANA
03:00 2.6 -2.7 68 22 13   101.49     LegendNANA
04:00 3.7 -2.8 62 22 24   101.38     LegendNANA
05:00 3.6 -2.3 65 22 22   101.30     LegendNANA
06:00 3.8 -1.8 67 23 20   101.24     LegendNANA
07:00 4.7 -0.5 69 24 20   101.23     LegendNANA
08:00 6.8 0.4 64 24 20   101.20     LegendNANA
09:00 8.0 0.0 57 23 33   100.96     LegendNANA
10:00 9.0 1.3 58 24 24   101.04     LegendNANA
11:00 9.2 1.9 60 24 22   100.95     LegendNANA
12:00 11.4 3.1 57 24 19   100.89     LegendNANA
13:00 13.8 4.7 54 23 22   100.81     LegendNANA
14:00 16.9 7.7 55 26 20   100.76     LegendNANA
15:00 14.9 7.5 61 26 19   100.77     LegendNANA
16:00 14.5 7.9 65 25 20   100.76     LegendNANA
17:00 13.9 8.0 68 25 15   100.75     LegendNANA
18:00 14.1 8.6 69 26 11   100.72     LegendNANA
19:00 12.8 8.2 74 26 7   100.72     LegendNANA
20:00 13.9 9.0 72 25 17   100.72     LegendNANA
21:00 13.5 8.9 74 26 13   100.76     LegendNANA
22:00 13.0 8.9 76 27 13   100.84     LegendNANA
23:00 11.0 7.3 78 27 6   100.92     LegendNANA

Notes on Data Quality.

Legend

  • E = Estimated
  • M = Missing
  • NA = Not Available
Date modified: